Погода в Лосиноборске

Погода в Лосиноборске : погода сейчас, прогноз погоды и архив. Всё, что Вы хотите узнать о погоде в Лосиноборске!

Хотите узнать прогноз погоды в Лосиноборске? Тогда Вам сюда: Погода в Лосиноборске

Поиск расширенной информации на нашем сайте:

Другие новости

Новости СМИ2

Главная страница сайта

Новости сайта

03.07.2017

Напоминаем, что на нашем специализированном сайте Метеоцентр.Азия вы можете получить высокодетализированные автоматические прогнозы погоды по пунктам России, СНГ и мира в авиационном формате (включающие направление и скорость ветра, видимость, явления погоды, количество и форму облачности, нижнюю и верхнюю границу облачности).


Погода в Лосиноборске - сегодня

Время (UTC), дата Ветер
(°,м/с) 
Видим.   Явления Облачность Т
(°С)
Тd
(°С)
f(%) Тe
(°С)
Pmin
(гПа)
dP
(гПа)
Po
(мм)
O2
(г/м3)
Тmin Tmax R s Состояние
почвы
21 11.12.17 тихо ()   н/о  слаб. ливневой снег  10/10 600 м кучево-дожд. 
[Cb cap]
-14.5 -15.8 90 -15  1029.5  -0.4  758  324           
00 12.12.17 тихо ()   н/о  {ливн. осадки}  10/10 600 м кучево-дожд. 
[Cb cap]
-14.7 -16 90 -15  1029.2  -0.7  758  324  -16.1    0.2  30  равномерный
сухой снег
100% 
03 12.12.17 тихо ()   10 км  слаб. ливневой снег  10/10 600 м кучево-дожд. 
[Cb cap]
-14.2 -15.5 90 -14  1028.7  -0.1  758  323           
06 12.12.17 тихо ()   20000 м  {ливн. осадки}  9/0 средняя, верхняя 
[Ac trans|Ci fib]
-11.8 -13.1 90 -12  1027.9  -0.5  757  320           
09 12.12.17 тихо ()   10 км  слаб. снег  9/8 1000 м средняя 
[Sc|As op]
-12 -13.3 90 -12  1028.1  0.2  758  321           
12 12.12.17 тихо ()   н/о  в посл. час снег  9/0 средняя, верхняя 
[Sc|As op|Ci fib]
-12.6 -13.9 90 -13  1028.8  0.5  758  321    -11.8  0.4     
15 12.12.17 250 (З) н/о  слаб. ливневой снег  10/10 600 м кучево-дожд. 
[Cb cap]
-13.3 -14.6 90 -15  1029.8  759  323           
18 12.12.17 270 (З) н/о  в посл. час ливневой снег  9/4 600 м кучево-дожд., верхняя 
[Cb cap|Ci fib]
-13.5 -14.9 89 -13  1031.4  1.5  760  323           
21 12.12.17 290 (З) н/о    ясно 
-15.4 -16.7 90 -15  1032.8  1.3  761  326           
00 13.12.17 тихо ()   н/о    ясно 
-17.8 -19 90 -18  1034  1.1  762  330  -17.8    0.8  30  равномерный
сухой снег
100% 
03 13.12.17 тихо ()   20000 м    9/9 1000 м 
[Sc]
-16.2 -17.5 90 -16  1035.3  1.3  763  328           
06 13.12.17 230 (ЮЗ) 20000 м    3/0 верхняя 
[Ci fib]
-14.9 -16.9 85 -15  1036  0.7  763  327           
09 13.12.17 230 (ЮЗ) 10 км  слаб. снег  9/0 средняя 
[Ac As]
-13.9 -15.9 85 -14  1036.5  0.6  764  326           
12 13.12.17 270 (З) н/о  {снег}  10/0 средняя 
[As op]
-14 -16 85 -14  1037.2  0.7  764  326    -13.9  0.2     
15 13.12.17 230 (ЮЗ) н/о    6/0 верхняя 
[Ci fib]
-15 -16.3 90 -15  1037.4  0.1  764  327           
18 13.12.17 270 (З) н/о    3/0 средняя 
[Ac trans]
-16.2 -17.5 90 -16  1039.3  1.8  766  329           
21 13.12.17 тихо ()   н/о  слаб. снег  10/0 средняя 
[As op]
-15.9 -17.2 90 -16  1039.9  0.7  766  329           
00 14.12.17 тихо ()   н/о  {снег}  9/0 средняя, верхняя 
[As op|Ci fib]
-16.5 -17.8 90 -17  1041.5  1.4  767  330  -16.5    0.0  30  равномерный
сухой снег
100% 
03 14.12.17 тихо ()   10 км  в посл. час снег  10/0 средняя 
[As op]
-16.1 -17.4 90 -16  1042.6  1.2  768  330           
06 14.12.17 230 (ЮЗ) 10 км  слаб. снег  10/0 средняя 
[As op]
-14.7 -16 90 -17  1043.3  0.7  769  329           
09 14.12.17 270 (З) 10 км  слаб. ливневой снег  10/8 600 м кучево-дожд., средняя 
[Cb cap|As op]
-13.9 -15.9 85 -14  1043.9  0.8  769  328           
12 14.12.17 230 (ЮЗ) н/о  {ливн. осадки, снег}  9/4 600 м кучево-дожд., верхняя 
[Cb cap|Ci fib]
-14.5 -16.5 85 -17  1045.2  1.1  770  329    -13.9  0.6     
15 14.12.17 230 (ЮЗ) н/о  {ливн. осадки}  9/0 верхняя 
[Ci fib]
-16.5 -18.4 85 -17  1045.7  0.4  770  332           
18 14.12.17 230 (ЮЗ) н/о  {ливн. осадки}  ясно 
-15.7 -17.6 85 -16  1044.8  -0.8  770  331           
21 14.12.17 230 (ЮЗ) н/о    ясно 
-16.7 -18.6 85 -19  1044.1  -0.8  769  332           
Время (UTC), дата Ветер
(°,м/с) 
Видим.   Явления Облачность Т
(°С)
Тd
(°С)
f(%) Тe
(°С)
Pmin
(гПа)
dP
(гПа)
Po
(мм)
O2
(г/м3)
Тmin Tmax R s Состояние
почвы

Для получения пояснительной информации подведите курсор к названию столбца.

ПОГОДА в Лосиноборске - архив

Всё, что Вы хотите узнать о погоде в Лосиноборске - удобно и подробно!

Выберите нужную дату (начиная с 1 января 2015* года) и нажмите кнопку "Найти".
Будут отображены архивные сводки погоды по пункту Лосиноборск, начиная с указанной даты.


Отображать данные в формате CSV (для использования в таблицах Excel)


Внимание! Наш архив погоды предназначен исключительно для личного некоммерческого использования в познавательных целях. Если Вам необходимы официальные справки о состоянии погоды (для производственных, юридических, коммерческих и т.п. целей), обращайтесь в органы Росгидромета.

*Примечание: данная дата относится к архиву по метеостанциям СССР (Россия, СНГ, Балтия).
Архив по метеостанциям Зарубежной Европы и Азии (кроме Китая) хранится 10 дней, по другим регионам земного шара (Китай, Африка, Америка, Австралия, Океания) - 1 день.

Лосиноборск - район местоположения метеостанции


Название, широта, долгота, высота метеостанции:
Лосиноборск 58.4°ш. 89.4°д. 137 м над ур. моря [Российская Федерация]

Дополнительная информация

В oтличие oт бoльшинства пoгoдных сайтoв мы публикуем пoдрoбную метеoинфoрмацию в детальнoм прoфессиoнальнoм фoрмате.

Характеристики температуры и влажнoсти вoздуха измеряются на высoте 2 м в тени вдали oт зданий и деревьев.
Скoрoсть ветра измеряется на высoте 10 м (на урoвне рoста челoвека скoрoсть ветра ниже в 1.5-2 раза). Если метеoстанция нахoдится в гoрoде или в лесу, тo скoрoсть ветра занижена на 2-4 м/с пo сравнению с oткрытым местoм. Скoрoсть ветра над акватoриями крупных рек и oзёр, а также на вершинах хoлмoв на 2-5 м/с выше, чем в oбычных услoвиях.
Атмoсфернoе давление в разных тoчках местнoсти мoжет значительнo oтличаться oт давления на метеoстанции, в зависимoсти oт услoвий рельефа (при пoдъёме на 10 м давление пoнижается примернo на 1 мм рт.ст.).